Davenport Municipal Airport
Saturday 8:52 PM
Temperature45° (55°/30°)
Dew Point30°
Feels Like41°
Relative Humidity55
%
Visibility10
mi
Pressure1020.7
mb
Wind DirectionN
360°
Wind Speed8
mph
Precipitation TodayTrace

Last 30 Observations

Time PresWx Temp DP Feels RH% Vsby Pressure Ceiling Direction Speed 1h Precip
8:52 PM 45° 30° 41°56
%
10
mi
1020.7
mb
N
360°
8
mph
0.00"
7:52 PM 49° 32° 47°52
%
10
mi
1020.3
mb
N
350°
5
mph
0.00"
6:52 PM 50° 29° 44
%
10
mi
1020.3
mb
N
10°
3
mph
0.00"
5:52 PM 52° 27° 38
%
10
mi
1020.0
mb
NE
50°
8
mph
0.00"
4:52 PM 54° 24° 31
%
10
mi
1020.3
mb
NNE
20°
8
mph
0.00"
3:52 PM 53° 27° 36
%
10
mi
1020.7
mb
NNE
20°
10
mph
0.00"
2:52 PM 52° 29° 41
%
10
mi
1021.3
mb
N
10°
10
mph
0.00"
1:52 PM 49° 31° 45°50
%
10
mi
1022.0
mb
N
350°
9
mph
0.00"
12:52 PM 47° 32° 41°56
%
10
mi
1022.7
mb
NNW
340°
13
mph
0.00"
11:52 AM 42° 30° 36°62
%
10
mi
1023.0
mb
N
350°
10
mph
0.00"
11:37 AM 41° 31° 34°67
%
10
mi
1023.0
mb
NW
320°
11
mph
0.00"
11:12 AM 38° 30° 30°73
%
10
mi
1023.0
mb
1,600
ft
NNW
330°
11
mph
0.00"
10:52 AM 38° 30° 30°73
%
10
mi
1023.4
mb
N
350°
13
mph
0.00"
10:47 AM 37° 30° 30°75
%
10
mi
1023.4
mb
N
360°
11
mph
0.00"
9:52 AM 34° 29° 25°82
%
10
mi
1023.0
mb
1,000
ft
N
360°
14
mph
0.00"
9:03 AM 31° 27° 20°85
%
10
mi
1023.4
mb
1,000
ft
NNW
340°
15
mph
0.00"
8:52 AM 31° 26° 21°82
%
10
mi
1023.4
mb
900
ft
NNW
340°
13
mph
0.00"
7:52 AM 31° 27° 21°85
%
9
mi
1023.4
mb
900
ft
NNW
330°
14
mph
0.00"
6:52 AM 30° 27° 19°88
%
9
mi
1023.0
mb
800
ft
NW
320°
16
mph
0.00"
5:52 AM 30° 27° 18°88
%
9
mi
1022.4
mb
700
ft
NW
310°
17
mph
0.00"
4:52 AM 31° 27° 20°85
%
10
mi
1022.0
mb
800
ft
NNW
330°
16
mph
0.00"
3:52 AM 31° 27° 19°85
%
10
mi
1021.3
mb
900
ft
NW
310°
17
mph
0.00"
3:42 AM 31° 27° 19°85
%
10
mi
1021.3
mb
900
ft
NW
310°
18
mph
0.00"
2:52 AM 32° 28° 21°85
%
10
mi
1021.3
mb
1,200
ft
NW
310°
17
mph
0.00"
1:52 AM 33° 29° 23°85
%
10
mi
1021.0
mb
1,300
ft
NW
320°
16
mph
0.00"
12:52 AM 33° 29° 22°85
%
10
mi
1020.7
mb
1,200
ft
NW
320°
18
mph
0.00"
12:37 AM 33° 29° 22°85
%
10
mi
1020.3
mb
1,100
ft
NW
320°
17
mph
0.00"
11:52 PM 33° 29° 22°85
%
10
mi
1020.3
mb
900
ft
WNW
300°
18
mph
0.00"
10:52 PM 34° 31° 24°88
%
10
mi
1020.3
mb
NW
310°
15
mph
0.00"
10:04 PM -RA 34° 31° 23°88
%
10
mi
1020.0
mb
900
ft
NW
310°
17
mph
0.00"